TimeEST,TemperatureF,Dew PointF,Humidity,Sea Level PressureIn,VisibilityMPH,Wind Direction,Wind SpeedMPH,Gust SpeedMPH,PrecipitationIn,Events,Conditions,WindDirDegrees,DateUTC
12:14 AM,19.4,8.6,63,30.08,10.0,SW,3.5,-,N/A,,Mostly Cloudy,230,2013-01-02 05:14:00
12:34 AM,19.4,8.6,63,30.07,10.0,WSW,5.8,-,N/A,,Scattered Clouds,250,2013-01-02 05:34:00
12:54 AM,17.6,8.6,68,30.07,10.0,WSW,3.5,-,N/A,,Clear,250,2013-01-02 05:54:00
1:14 AM,17.6,8.6,68,30.06,10.0,West,3.5,-,N/A,,Clear,270,2013-01-02 06:14:00
1:34 AM,17.6,8.6,68,30.07,10.0,West,5.8,-,N/A,,Clear,260,2013-01-02 06:34:00
1:54 AM,17.6,10.4,73,30.07,10.0,West,5.8,-,N/A,,Clear,270,2013-01-02 06:54:00
2:14 AM,17.6,10.4,73,30.07,10.0,West,5.8,-,N/A,,Clear,260,2013-01-02 07:14:00
2:34 AM,17.6,10.4,73,30.08,10.0,West,6.9,-,N/A,,Clear,270,2013-01-02 07:34:00
2:55 AM,17.6,10.4,73,30.08,10.0,West,6.9,-,N/A,,Clear,270,2013-01-02 07:55:00
3:14 AM,17.6,10.4,73,30.08,10.0,West,5.8,-,N/A,,Clear,260,2013-01-02 08:14:00
3:34 AM,17.6,10.4,73,30.08,10.0,West,5.8,-,N/A,,Clear,270,2013-01-02 08:34:00
3:54 AM,17.6,10.4,73,30.08,10.0,West,5.8,-,N/A,,Clear,270,2013-01-02 08:54:00
4:34 AM,17.6,10.4,73,30.09,10.0,West,3.5,-,N/A,,Clear,260,2013-01-02 09:34:00
4:54 AM,15.8,10.4,79,30.10,10.0,West,3.5,-,N/A,,Clear,270,2013-01-02 09:54:00
5:14 AM,15.8,10.4,79,30.09,10.0,WNW,3.5,-,N/A,,Clear,290,2013-01-02 10:14:00
5:34 AM,15.8,10.4,79,30.09,10.0,West,4.6,-,N/A,,Clear,270,2013-01-02 10:34:00
5:54 AM,15.8,10.4,79,30.10,10.0,WSW,3.5,-,N/A,,Clear,240,2013-01-02 10:54:00
6:14 AM,15.8,10.4,79,30.10,10.0,WSW,3.5,-,N/A,,Clear,250,2013-01-02 11:14:00
6:34 AM,15.8,10.4,79,30.11,10.0,WSW,4.6,-,N/A,,Clear,250,2013-01-02 11:34:00
6:54 AM,15.8,10.4,79,30.11,10.0,SW,4.6,-,N/A,,Clear,230,2013-01-02 11:54:00
7:14 AM,14.0,10.4,86,30.12,10.0,SW,5.8,-,N/A,,Clear,230,2013-01-02 12:14:00
7:34 AM,14.0,10.4,86,30.12,10.0,WSW,5.8,-,N/A,,Clear,240,2013-01-02 12:34:00
7:54 AM,14.0,8.6,79,30.12,10.0,WSW,5.8,-,N/A,,Clear,240,2013-01-02 12:54:00
8:14 AM,14.0,8.6,79,30.12,10.0,WSW,4.6,-,N/A,,Clear,240,2013-01-02 13:14:00
8:34 AM,12.2,8.6,85,30.11,10.0,West,3.5,-,N/A,,Clear,260,2013-01-02 13:34:00
8:54 AM,14.0,10.4,86,30.12,10.0,WSW,4.6,-,N/A,,Clear,240,2013-01-02 13:54:00
9:14 AM,15.8,10.4,79,30.13,10.0,WSW,5.8,-,N/A,,Clear,240,2013-01-02 14:14:00
9:34 AM,15.8,10.4,79,30.13,10.0,WSW,4.6,-,N/A,,Mostly Cloudy,240,2013-01-02 14:34:00
9:54 AM,15.8,10.4,79,30.15,10.0,WSW,3.5,-,N/A,,Overcast,250,2013-01-02 14:54:00
10:14 AM,17.6,10.4,73,30.15,10.0,SW,3.5,-,N/A,,Overcast,230,2013-01-02 15:14:00
10:34 AM,17.6,12.2,79,30.16,10.0,SSW,5.8,-,N/A,,Overcast,210,2013-01-02 15:34:00
10:54 AM,19.4,12.2,74,30.17,10.0,WSW,6.9,-,N/A,,Overcast,250,2013-01-02 15:54:00
11:14 AM,19.4,12.2,74,30.17,10.0,WSW,4.6,-,N/A,,Overcast,250,2013-01-02 16:14:00
11:34 AM,19.4,12.2,74,30.18,10.0,SW,5.8,-,N/A,,Overcast,230,2013-01-02 16:34:00
11:55 AM,21.2,12.2,68,30.17,10.0,SW,5.8,-,N/A,,Overcast,220,2013-01-02 16:55:00
12:14 PM,21.2,14.0,74,30.16,10.0,WSW,4.6,-,N/A,,Overcast,250,2013-01-02 17:14:00
12:34 PM,21.2,14.0,74,30.15,10.0,SW,3.5,-,N/A,,Overcast,220,2013-01-02 17:34:00
12:54 PM,23.0,14.0,68,30.15,10.0,SW,3.5,-,N/A,,Overcast,230,2013-01-02 17:54:00
1:14 PM,23.0,15.8,74,30.15,10.0,SW,3.5,-,N/A,,Overcast,230,2013-01-02 18:14:00
1:35 PM,23.0,15.8,74,30.15,10.0,SW,5.8,-,N/A,,Overcast,230,2013-01-02 18:35:00
1:54 PM,24.8,15.8,69,30.15,10.0,SW,6.9,-,N/A,,Overcast,230,2013-01-02 18:54:00
2:14 PM,24.8,15.8,69,30.14,10.0,SW,6.9,-,N/A,,Overcast,220,2013-01-02 19:14:00
2:34 PM,24.8,15.8,69,30.13,10.0,SW,5.8,-,N/A,,Overcast,230,2013-01-02 19:34:00
2:54 PM,24.8,15.8,69,30.14,10.0,SW,4.6,-,N/A,,Overcast,220,2013-01-02 19:54:00
3:14 PM,24.8,15.8,69,30.14,10.0,SW,4.6,-,N/A,,Overcast,220,2013-01-02 20:14:00
3:34 PM,24.8,15.8,69,30.15,10.0,SW,6.9,-,N/A,,Overcast,220,2013-01-02 20:34:00
3:54 PM,24.8,15.8,69,30.15,10.0,Calm,Calm,-,N/A,,Overcast,0,2013-01-02 20:54:00
4:14 PM,24.8,15.8,69,30.15,10.0,SSW,4.6,-,N/A,,Overcast,210,2013-01-02 21:14:00
4:34 PM,24.8,15.8,69,30.15,10.0,SW,6.9,-,N/A,,Overcast,220,2013-01-02 21:34:00
4:54 PM,24.8,15.8,69,30.15,10.0,SSW,6.9,-,N/A,,Overcast,210,2013-01-02 21:54:00
5:14 PM,24.8,15.8,69,30.16,10.0,SW,5.8,-,N/A,,Overcast,230,2013-01-02 22:14:00
5:34 PM,24.8,15.8,69,30.15,10.0,SSW,6.9,-,N/A,,Overcast,210,2013-01-02 22:34:00
5:54 PM,24.8,17.6,74,30.16,10.0,SW,5.8,-,N/A,,Overcast,230,2013-01-02 22:54:00
6:15 PM,24.8,17.6,74,30.17,10.0,WSW,6.9,-,N/A,,Overcast,240,2013-01-02 23:15:00
6:34 PM,24.8,17.6,74,30.17,10.0,SW,6.9,-,N/A,,Overcast,220,2013-01-02 23:34:00
6:54 PM,24.8,17.6,74,30.18,10.0,SW,9.2,-,N/A,,Overcast,230,2013-01-02 23:54:00
7:14 PM,24.8,17.6,74,30.19,10.0,SW,5.8,-,N/A,,Overcast,230,2013-01-03 00:14:00
7:34 PM,24.8,17.6,74,30.19,10.0,SW,9.2,-,N/A,,Overcast,230,2013-01-03 00:34:00
7:54 PM,24.8,15.8,69,30.19,10.0,WSW,10.4,-,N/A,,Overcast,240,2013-01-03 00:54:00
8:14 PM,24.8,15.8,69,30.19,10.0,SW,8.1,-,N/A,,Overcast,230,2013-01-03 01:14:00
8:34 PM,23.0,17.6,80,30.18,10.0,WSW,6.9,-,N/A,,Overcast,240,2013-01-03 01:34:00
9:14 PM,23.0,17.6,80,30.17,10.0,SW,6.9,-,N/A,,Overcast,230,2013-01-03 02:14:00
9:34 PM,23.0,17.6,80,30.17,10.0,SW,5.8,-,N/A,,Overcast,230,2013-01-03 02:34:00
9:54 PM,23.0,15.8,74,30.17,10.0,SW,5.8,-,N/A,,Overcast,230,2013-01-03 02:54:00
10:14 PM,23.0,15.8,74,30.17,10.0,SW,9.2,-,N/A,,Overcast,230,2013-01-03 03:14:00
10:34 PM,23.0,17.6,80,30.17,10.0,SW,8.1,-,N/A,,Overcast,230,2013-01-03 03:34:00
10:54 PM,23.0,17.6,80,30.16,10.0,SW,5.8,-,N/A,,Overcast,230,2013-01-03 03:54:00
11:14 PM,23.0,17.6,80,30.17,10.0,SSW,6.9,-,N/A,,Overcast,210,2013-01-03 04:14:00
11:34 PM,23.0,17.6,80,30.16,10.0,SW,6.9,-,N/A,,Overcast,220,2013-01-03 04:34:00
11:54 PM,23.0,17.6,80,30.16,10.0,SW,8.1,-,N/A,,Overcast,220,2013-01-03 04:54:00